STARLINK-32594, 62302

Orbit data source: Space-Track

STARLINK-32594, 62302 is a payload satellite owned by SpaceX/Seattle (US) in LEO that was launched on Fri, 13 Dec 2024 UTC via an FALCON 9 launch vehicle from the Air Force Western Test Range (AFWTR). Payload-class satellites include a variety of spacecraft equipped with specific instruments for various scientific and technological missions. These include communications satellites like Starlink; space stations such as the ISS; scientific satellites like the Hubble; Earth observation satellites from companies like Planet Labs, Umbra, and HawkEye 360; GPS; miniature CubeSats for education and research; and military/defense satellites.

Loading next visibility...
Identifier
62302, 2024-239B
Orbit
LEO
Country
Flag of USUS
Related business
Manufacturer
SpaceX/Seattle
Mission
Operational Commercial Communications
Bus & Motor
STARLINK V2M, Unknown motor
Mass
730 kg wet, ~700 kg dry
Launch date (UTC)
2024-12-13 (2 years ago)
Launch vehicle
FALCON 9
Launch site
Air Force Western Test Range (AFWTR)
Object type
Payload
Rocket body
Debris
Shape & HBR
Box + 2 Pan, 17.7 m
Radar Cross Section
33.884 m², Large (>1 m²)

Expand to show TLE details & history
Last TLE update: 13 hours ago

TLE from 13 hours ago
0 STARLINK-32594
1 62302U 24239B   26171.43583912  .00023533  00000-0  70491-3 0  9995
2 62302  53.1585  73.7743 0000473 212.4511 147.6463 15.34423826 85151
Epoch: 2026-06-20T10:27Z
TLE epoch observation values (Epoch: 2026-06-20T10:27:36.499Z)
Latitude
-0.00001°
Longitude
8.22172°
Altitude
463.807 km
Speed
7.636 km/s
True Right ascension
04h 55m 05s
True Declination
0° 00' 00"
Sunlit
Object was in daylight at epoch
Visualization orbit readout
Latitude
Unknown
Longitude
Unknown
Altitude
Unknown
Speed
Unknown
Apparent Right ascension
Unknown
Apparent Declination
Unknown
Sunlit
N/A
Visualization observer readout
Local Sidereal Time
10:19:02
Azimuth
Unknown
Elevation
Unknown
Doppler factor
Unknown
Orbital elements
Apogee altitude
463.213 km
Perigee altitude
462.566 km
Semi-major axis
6,841.027 km
Eccentricity
0.00005
Inclination
53.1585°
RAAN
73.7743°
Arg. of periapsis
212.4511°
True anomaly
147.6492°
Mean anomaly
147.6463°
Eccentric anomaly
147.64775°
Mean motion
3.83585 °/min
Orbital period
93.85 mins
BSTAR
0.00070491
Loading maneuver chart data...
Computing Atmospheric mass density...
Loading historical data...
Loading historical data...
Loading historical data...
Loading historical data...
Loading historical data...
Loading historical data...
Loading historical data...

Documentation

Showing up to 5 results
|